Time,TemperatureF,DewpointF,PressureIn,WindDirection,WindDirectionDegrees,WindSpeedMPH,WindSpeedGustMPH,Humidity,HourlyPrecipIn,Conditions,Clouds,dailyrainin,SoftwareType,DateUTC
2013-01-30 00:22:00,45.0,-99.9,30.05,WSW,249,6.0,10.0,-999,-99.99,,,-99.99,,2013-01-30 05:22:00,
2013-01-30 00:33:00,45.0,-99.9,30.05,WSW,249,6.0,10.0,-999,-99.99,,,-99.99,,2013-01-30 05:33:00,
2013-01-30 00:43:00,45.0,-99.9,30.05,WSW,249,6.0,10.0,-999,-99.99,,,-99.99,,2013-01-30 05:43:00,
2013-01-30 00:52:00,45.0,-99.9,30.01,West,278,-999.0,9.0,-999,-99.99,,,-99.99,,2013-01-30 05:52:00,
2013-01-30 01:22:00,45.0,-99.9,30.01,West,278,-999.0,9.0,-999,-99.99,,,-99.99,,2013-01-30 06:22:00,
2013-01-30 01:32:00,45.0,-99.9,30.01,West,278,-999.0,9.0,-999,-99.99,,,-99.99,,2013-01-30 06:32:00,
2013-01-30 01:42:00,45.0,-99.9,30.01,West,278,-999.0,9.0,-999,-99.99,,,-99.99,,2013-01-30 06:42:00,
2013-01-30 01:52:00,45.0,-99.9,30.01,NNW,336,-999.0,9.0,-999,-99.99,,,-99.99,,2013-01-30 06:52:00,
2013-01-30 02:22:00,45.0,-99.9,30.01,NNW,336,-999.0,9.0,-999,-99.99,,,-99.99,,2013-01-30 07:22:00,
2013-01-30 02:32:00,45.0,-99.9,30.01,NNW,336,-999.0,9.0,-999,-99.99,,,-99.99,,2013-01-30 07:32:00,
2013-01-30 02:42:00,45.0,-99.9,30.01,NNW,336,-999.0,9.0,-999,-99.99,,,-99.99,,2013-01-30 07:42:00,
2013-01-30 02:52:00,44.0,-99.9,29.97,North,-999,8.0,8.0,-999,-99.99,,,-99.99,,2013-01-30 07:52:00,
2013-01-30 03:32:00,44.0,-99.9,29.97,North,-999,8.0,8.0,-999,-99.99,,,-99.99,,2013-01-30 08:32:00,
2013-01-30 03:42:00,44.0,-99.9,29.97,North,-999,8.0,8.0,-999,-99.99,,,-99.99,,2013-01-30 08:42:00,
2013-01-30 03:52:00,45.0,-99.9,29.95,North,-999,-999.0,10.0,-999,-99.99,,,-99.99,,2013-01-30 08:52:00,
2013-01-30 04:22:00,45.0,-99.9,29.95,North,-999,-999.0,10.0,-999,-99.99,,,-99.99,,2013-01-30 09:22:00,
2013-01-30 04:32:00,45.0,-99.9,29.95,North,-999,-999.0,10.0,-999,-99.99,,,-99.99,,2013-01-30 09:32:00,
2013-01-30 04:42:00,45.0,-99.9,29.95,North,-999,-999.0,10.0,-999,-99.99,,,-99.99,,2013-01-30 09:42:00,
2013-01-30 04:52:00,44.0,-99.9,29.93,North,-999,-999.0,8.0,-999,-99.99,,,-99.99,,2013-01-30 09:52:00,
2013-01-30 05:22:00,44.0,-99.9,29.93,North,-999,-999.0,8.0,-999,-99.99,,,-99.99,,2013-01-30 10:22:00,
2013-01-30 05:32:00,44.0,-99.9,29.93,North,-999,-999.0,8.0,-999,-99.99,,,-99.99,,2013-01-30 10:32:00,
2013-01-30 05:42:00,44.0,-99.9,29.93,North,-999,-999.0,8.0,-999,-99.99,,,-99.99,,2013-01-30 10:42:00,
2013-01-30 07:22:00,46.0,-99.9,29.90,North,-999,-999.0,9.0,-999,-99.99,,,-99.99,,2013-01-30 12:22:00,
2013-01-30 07:33:00,46.0,-99.9,29.90,North,-999,-999.0,9.0,-999,-99.99,,,-99.99,,2013-01-30 12:33:00,
2013-01-30 07:43:00,46.0,-99.9,29.90,North,-999,-999.0,9.0,-999,-99.99,,,-99.99,,2013-01-30 12:43:00,
2013-01-30 07:52:00,47.0,-99.9,29.88,North,-999,-999.0,9.0,-999,-99.99,,,-99.99,,2013-01-30 12:52:00,
2013-01-30 08:23:00,47.0,-99.9,29.88,North,-999,-999.0,9.0,-999,-99.99,,,-99.99,,2013-01-30 13:23:00,
2013-01-30 08:33:00,47.0,-99.9,29.88,North,-999,-999.0,9.0,-999,-99.99,,,-99.99,,2013-01-30 13:33:00,
2013-01-30 08:43:00,47.0,-99.9,29.88,North,-999,-999.0,9.0,-999,-99.99,,,-99.99,,2013-01-30 13:43:00,
2013-01-30 08:52:00,48.0,-99.9,29.87,North,-999,11.0,12.0,-999,-99.99,,,-99.99,,2013-01-30 13:52:00,
2013-01-30 09:23:00,48.0,-99.9,29.87,North,-999,11.0,12.0,-999,-99.99,,,-99.99,,2013-01-30 14:23:00,
2013-01-30 09:33:00,48.0,-99.9,29.87,North,-999,11.0,12.0,-999,-99.99,,,-99.99,,2013-01-30 14:33:00,
2013-01-30 09:43:00,48.0,-99.9,29.87,North,-999,11.0,12.0,-999,-99.99,,,-99.99,,2013-01-30 14:43:00,
2013-01-30 09:52:00,49.0,-99.9,29.85,North,-999,-999.0,14.0,-999,-99.99,,,-99.99,,2013-01-30 14:52:00,
2013-01-30 10:24:00,49.0,-99.9,29.85,North,-999,-999.0,14.0,-999,-99.99,,,-99.99,,2013-01-30 15:24:00,
2013-01-30 10:33:00,49.0,-99.9,29.85,North,-999,-999.0,14.0,-999,-99.99,,,-99.99,,2013-01-30 15:33:00,
2013-01-30 10:43:00,49.0,-99.9,29.85,North,-999,-999.0,14.0,-999,-99.99,,,-99.99,,2013-01-30 15:43:00,
2013-01-30 11:52:00,46.0,-99.9,29.80,North,-999,-999.0,9.0,-999,-99.99,,,-99.99,,2013-01-30 16:52:00,
2013-01-30 12:23:00,46.0,-99.9,29.80,North,-999,-999.0,9.0,-999,-99.99,,,-99.99,,2013-01-30 17:23:00,
2013-01-30 12:34:00,46.0,-99.9,29.80,North,-999,-999.0,9.0,-999,-99.99,,,-99.99,,2013-01-30 17:34:00,
2013-01-30 12:43:00,46.0,-99.9,29.80,North,-999,-999.0,9.0,-999,-99.99,,,-99.99,,2013-01-30 17:43:00,
2013-01-30 12:52:00,49.0,-99.9,29.74,North,-999,7.0,13.0,-999,-99.99,,,-99.99,,2013-01-30 17:52:00,
2013-01-30 13:23:00,49.0,-99.9,29.74,North,-999,7.0,13.0,-999,-99.99,,,-99.99,,2013-01-30 18:23:00,
2013-01-30 13:33:00,49.0,-99.9,29.74,North,-999,7.0,13.0,-999,-99.99,,,-99.99,,2013-01-30 18:33:00,
2013-01-30 13:43:00,49.0,-99.9,29.74,North,-999,7.0,13.0,-999,-99.99,,,-99.99,,2013-01-30 18:43:00,
2013-01-30 13:52:00,52.0,-99.9,29.69,North,-999,-999.0,16.0,-999,-99.99,,,-99.99,,2013-01-30 18:52:00,
2013-01-30 14:22:00,52.0,-99.9,29.69,North,-999,-999.0,16.0,-999,-99.99,,,-99.99,,2013-01-30 19:22:00,
2013-01-30 14:33:00,52.0,-99.9,29.69,North,-999,-999.0,16.0,-999,-99.99,,,-99.99,,2013-01-30 19:33:00,
2013-01-30 14:43:00,52.0,-99.9,29.69,North,-999,-999.0,16.0,-999,-99.99,,,-99.99,,2013-01-30 19:43:00,
2013-01-30 14:52:00,49.0,-99.9,29.70,WNW,285,3.0,10.0,-999,-99.99,,,-99.99,,2013-01-30 19:52:00,
2013-01-30 15:22:00,49.0,-99.9,29.70,WNW,285,3.0,10.0,-999,-99.99,,,-99.99,,2013-01-30 20:22:00,
2013-01-30 15:33:00,49.0,-99.9,29.70,WNW,285,3.0,10.0,-999,-99.99,,,-99.99,,2013-01-30 20:33:00,
2013-01-30 15:42:00,49.0,-99.9,29.70,WNW,285,3.0,10.0,-999,-99.99,,,-99.99,,2013-01-30 20:42:00,
2013-01-30 15:52:00,49.0,-99.9,29.67,North,-999,-999.0,17.0,-999,-99.99,,,-99.99,,2013-01-30 20:52:00,
2013-01-30 16:23:00,49.0,-99.9,29.67,North,-999,-999.0,17.0,-999,-99.99,,,-99.99,,2013-01-30 21:23:00,
2013-01-30 16:32:00,49.0,-99.9,29.67,North,-999,-999.0,17.0,-999,-99.99,,,-99.99,,2013-01-30 21:32:00,
2013-01-30 16:43:00,49.0,-99.9,29.67,North,-999,-999.0,17.0,-999,-99.99,,,-99.99,,2013-01-30 21:43:00,
2013-01-30 17:52:00,51.0,-99.9,29.63,North,-999,-999.0,20.0,-999,-99.99,,,-99.99,,2013-01-30 22:52:00,
2013-01-30 18:23:00,51.0,-99.9,29.63,North,-999,-999.0,20.0,-999,-99.99,,,-99.99,,2013-01-30 23:23:00,
2013-01-30 18:33:00,51.0,-99.9,29.63,North,-999,-999.0,20.0,-999,-99.99,,,-99.99,,2013-01-30 23:33:00,
2013-01-30 18:43:00,51.0,-99.9,29.63,North,-999,-999.0,20.0,-999,-99.99,,,-99.99,,2013-01-30 23:43:00,
2013-01-30 18:52:00,51.0,-99.9,29.60,North,-999,-999.0,22.0,-999,-99.99,,,-99.99,,2013-01-30 23:52:00,
2013-01-30 19:32:00,51.0,-99.9,29.60,North,-999,-999.0,22.0,-999,-99.99,,,-99.99,,2013-01-31 00:32:00,
2013-01-30 20:52:00,48.0,-99.9,29.54,North,-999,-999.0,20.0,-999,-99.99,,,-99.99,,2013-01-31 01:52:00,
2013-01-30 21:22:00,48.0,-99.9,29.54,North,-999,-999.0,20.0,-999,-99.99,,,-99.99,,2013-01-31 02:22:00,
2013-01-30 21:32:00,48.0,-99.9,29.54,North,-999,-999.0,20.0,-999,-99.99,,,-99.99,,2013-01-31 02:32:00,
2013-01-30 21:42:00,48.0,-99.9,29.54,North,-999,-999.0,20.0,-999,-99.99,,,-99.99,,2013-01-31 02:42:00,
2013-01-30 22:52:00,51.0,-99.9,29.45,North,-999,-999.0,20.0,-999,-99.99,,,-99.99,,2013-01-31 03:52:00,
2013-01-30 23:22:00,51.0,-99.9,29.45,North,-999,-999.0,20.0,-999,-99.99,,,-99.99,,2013-01-31 04:22:00,
2013-01-30 23:32:00,51.0,-99.9,29.45,North,-999,-999.0,20.0,-999,-99.99,,,-99.99,,2013-01-31 04:32:00,
2013-01-30 23:42:00,51.0,-99.9,29.45,North,-999,-999.0,20.0,-999,-99.99,,,-99.99,,2013-01-31 04:42:00,
2013-01-30 23:52:00,51.0,-99.9,29.41,North,-999,-999.0,21.0,-999,-99.99,,,-99.99,,2013-01-31 04:52:00,